• In Germany
  • List of Countries
  • For 7 days
  • Water Temperature
  • Satellite Maps
  • Weather Map
  • Weather Widgets
  • user-avatar
    Login

    Hourly Weather Gaborone

    Today, 25 May, Friday

    Time Temperature Precipitation Wind Pressure Humidity
    00:00 +19°C° 0 mm 1 mps 678 mmHg 41%
    01:00 +17°C° 0 mm 0 mps 678 mmHg 43%
    02:00 +16°C° 0 mm 0 mps 678 mmHg 43%
    03:00 +16°C° 0 mm 0 mps 678 mmHg 44%
    04:00 +15°C° 0 mm 0 mps 678 mmHg 45%
    05:00 +15°C° 0 mm 0 mps 678 mmHg 46%
    06:00 +16°C° 0 mm 0 mps 679 mmHg 44%
    07:00 +17°C° 0 mm 0 mps 679 mmHg 43%
    08:00 +19°C° 0 mm 0 mps 680 mmHg 33%
    09:00 +23°C° 0 mm 1 mps 680 mmHg 30%
    10:00 +25°C° 0 mm 1 mps 681 mmHg 26%
    11:00 +28°C° 0 mm 1 mps 681 mmHg 23%
    12:00 +28°C° 0 mm 1 mps 680 mmHg 20%
    13:00 +29°C° 0 mm 1 mps 680 mmHg 18%
    14:00 +29°C° 0 mm 2 mps 680 mmHg 15%
    15:00 +29°C° 0 mm 1 mps 679 mmHg 16%
    16:00 +28°C° 0 mm 1 mps 679 mmHg 17%
    17:00 +25°C° 0 mm 0 mps 679 mmHg 18%
    18:00 +23°C° 0 mm 0 mps 678 mmHg 19%
    19:00 +24°C° 0 mm 1 mps 678 mmHg 21%
    20:00 +22°C° 0 mm 1 mps 678 mmHg 22%
    21:00 +21°C° 0 mm 1 mps 678 mmHg 22%
    22:00 +20°C° 0 mm 1 mps 678 mmHg 22%
    23:00 +20°C° 0 mm 1 mps 678 mmHg 23%

    Tomorrow, 26 May, Saturday

    Time Temperature Precipitation Wind Pressure Humidity
    00:00 +19°C° 0 mm 1 mps 678 mmHg 23%
    01:00 +19°C° 0 mm 1 mps 678 mmHg 23%
    02:00 +18°C° 0 mm 1 mps 678 mmHg 23%
    03:00 +18°C° 0 mm 1 mps 678 mmHg 24%
    04:00 +16°C° 0 mm 1 mps 678 mmHg 24%
    05:00 +15°C° 0 mm 0 mps 678 mmHg 24%
    06:00 +15°C° 0 mm 0 mps 678 mmHg 24%
    07:00 +16°C° 0 mm 0 mps 679 mmHg 24%
    08:00 +17°C° 0 mm 0 mps 680 mmHg 23%
    09:00 +20°C° 0 mm 0 mps 680 mmHg 21%
    10:00 +25°C° 0 mm 1 mps 681 mmHg 18%
    11:00 +27°C° 0 mm 1 mps 682 mmHg 16%
    12:00 +28°C° 0 mm 1 mps 681 mmHg 15%
    13:00 +29°C° 0 mm 1 mps 681 mmHg 15%
    14:00 +29°C° 0 mm 2 mps 680 mmHg 15%
    15:00 +29°C° 0 mm 1 mps 680 mmHg 16%
    16:00 +28°C° 0 mm 1 mps 679 mmHg 17%
    17:00 +25°C° 0 mm 0 mps 679 mmHg 19%
    18:00 +23°C° 0 mm 0 mps 679 mmHg 20%
    19:00 +24°C° 0 mm 1 mps 679 mmHg 22%
    20:00 +22°C° 0 mm 1 mps 679 mmHg 23%
    21:00 +21°C° 0 mm 1 mps 679 mmHg 24%
    22:00 +20°C° 0 mm 1 mps 679 mmHg 25%
    23:00 +18°C° 0 mm 0 mps 680 mmHg 26%

    Day after tomorrow, 27 May, Sunday

    Time Temperature Precipitation Wind Pressure Humidity
    00:00 +17°C° 0 mm 0 mps 679 mmHg 28%
    01:00 +17°C° 0 mm 0 mps 679 mmHg 29%
    02:00 +16°C° 0 mm 0 mps 679 mmHg 30%
    03:00 +16°C° 0 mm 0 mps 679 mmHg 33%
    04:00 +16°C° 0 mm 1 mps 679 mmHg 35%
    05:00 +16°C° 0 mm 1 mps 679 mmHg 38%
    06:00 +18°C° 0 mm 1 mps 680 mmHg 38%
    07:00 +18°C° 0 mm 1 mps 681 mmHg 39%
    08:00 +19°C° 0 mm 1 mps 681 mmHg 40%
    09:00 +20°C° 0 mm 2 mps 682 mmHg 36%
    10:00 +24°C° 0 mm 2 mps 682 mmHg 32%
    11:00 +26°C° 0 mm 3 mps 683 mmHg 29%
    12:00 +27°C° 0 mm 3 mps 682 mmHg 25%
    13:00 +28°C° 0 mm 3 mps 682 mmHg 22%
    14:00 +29°C° 0 mm 3 mps 681 mmHg 19%
    15:00 +29°C° 0 mm 2 mps 681 mmHg 19%
    16:00 +28°C° 0 mm 2 mps 681 mmHg 20%
    17:00 +27°C° 0 mm 1 mps 680 mmHg 21%
    18:00 +26°C° 0 mm 1 mps 680 mmHg 23%
    19:00 +24°C° 0 mm 1 mps 680 mmHg 26%
    20:00 +22°C° 0 mm 1 mps 680 mmHg 29%
    21:00 +21°C° 0 mm 1 mps 681 mmHg 31%
    22:00 +21°C° 0 mm 1 mps 681 mmHg 33%
    23:00 +20°C° 0 mm 1 mps 681 mmHg 35%

    28 May, Monday

    Time Temperature Precipitation Wind Pressure Humidity
    00:00 +19°C° 0 mm 1 mps 681 mmHg 38%
    01:00 +19°C° 0 mm 1 mps 681 mmHg 40%
    02:00 +18°C° 0 mm 1 mps 681 mmHg 43%
    03:00 +18°C° 0 mm 1 mps 680 mmHg 46%
    04:00 +16°C° 0 mm 1 mps 680 mmHg 48%
    05:00 +16°C° 0 mm 1 mps 680 mmHg 51%
    06:00 +16°C° 0 mm 1 mps 681 mmHg 51%
    07:00 +18°C° 0 mm 1 mps 681 mmHg 51%
    08:00 +18°C° 0 mm 1 mps 682 mmHg 50%
    09:00 +20°C° 0 mm 2 mps 682 mmHg 44%
    10:00 +22°C° 0 mm 3 mps 683 mmHg 37%
    11:00 +26°C° 0 mm 3 mps 683 mmHg 30%
    12:00 +27°C° 0 mm 3 mps 682 mmHg 27%
    13:00 +28°C° 0 mm 3 mps 682 mmHg 24%
    14:00 +29°C° 0 mm 3 mps 681 mmHg 21%
    15:00 +29°C° 0 mm 3 mps 681 mmHg 22%
    16:00 +28°C° 0 mm 2 mps 680 mmHg 23%
    17:00 +27°C° 0 mm 1 mps 680 mmHg 23%
    18:00 +26°C° 0 mm 1 mps 680 mmHg 26%
    19:00 +24°C° 0 mm 1 mps 680 mmHg 29%
    20:00 +22°C° 0 mm 1 mps 680 mmHg 32%
    21:00 +21°C° 0 mm 1 mps 680 mmHg 33%
    22:00 +21°C° 0 mm 1 mps 680 mmHg 34%
    23:00 +20°C° 0 mm 1 mps 680 mmHg 36%

    29 May, Tuesday

    Time Temperature Precipitation Wind Pressure Humidity
    00:00 +19°C° 0 mm 2 mps 679 mmHg 37%
    01:00 +18°C° 0 mm 2 mps 679 mmHg 38%
    02:00 +18°C° 0 mm 2 mps 679 mmHg 39%
    03:00 +17°C° 0 mm 2 mps 678 mmHg 39%
    04:00 +17°C° 0 mm 2 mps 678 mmHg 40%
    05:00 +16°C° 0 mm 2 mps 678 mmHg 41%
    06:00 +17°C° 0 mm 2 mps 678 mmHg 40%
    07:00 +17°C° 0 mm 2 mps 679 mmHg 40%
    08:00 +18°C° 0 mm 2 mps 679 mmHg 40%
    09:00 +20°C° 0 mm 3 mps 680 mmHg 35%
    10:00 +24°C° 0 mm 3 mps 680 mmHg 30%
    11:00 +26°C° 0 mm 4 mps 680 mmHg 25%
    12:00 +27°C° 0 mm 4 mps 680 mmHg 24%
    13:00 +28°C° 0 mm 5 mps 679 mmHg 23%
    14:00 +29°C° 0 mm 5 mps 679 mmHg 22%
    15:00 +28°C° 0 mm 4 mps 678 mmHg 23%
    16:00 +28°C° 0 mm 4 mps 678 mmHg 25%
    17:00 +27°C° 0 mm 3 mps 678 mmHg 26%
    18:00 +26°C° 0 mm 3 mps 678 mmHg 27%
    19:00 +24°C° 0 mm 3 mps 678 mmHg 28%
    20:00 +23°C° 0 mm 2 mps 678 mmHg 29%
    21:00 +21°C° 0 mm 2 mps 678 mmHg 28%
    22:00 +20°C° 0 mm 2 mps 678 mmHg 26%
    23:00 +19°C° 0 mm 2 mps 679 mmHg 24%

    30 May, Wednesday

    Time Temperature Precipitation Wind Pressure Humidity
    00:00 +18°C° 0 mm 2 mps 678 mmHg 25%
    01:00 +18°C° 0 mm 2 mps 678 mmHg 26%
    02:00 +17°C° 0 mm 2 mps 678 mmHg 27%
    03:00 +16°C° 0 mm 2 mps 678 mmHg 30%
    04:00 +15°C° 0 mm 2 mps 678 mmHg 32%
    05:00 +14°C° 0 mm 2 mps 678 mmHg 35%
    06:00 +15°C° 0 mm 1 mps 678 mmHg 35%
    07:00 +15°C° 0 mm 1 mps 678 mmHg 35%
    08:00 +16°C° 0 mm 1 mps 679 mmHg 36%
    09:00 +19°C° 0 mm 1 mps 679 mmHg 30%
    10:00 +21°C° 0 mm 2 mps 679 mmHg 25%
    11:00 +25°C° 0 mm 2 mps 680 mmHg 20%
    12:00 +26°C° 0 mm 2 mps 679 mmHg 18%
    13:00 +27°C° 0 mm 2 mps 679 mmHg 16%
    14:00 +28°C° 0 mm 2 mps 678 mmHg 14%
    15:00 +28°C° 0 mm 2 mps 678 mmHg 16%
    16:00 +27°C° 0 mm 1 mps 677 mmHg 18%
    17:00 +27°C° 0 mm 1 mps 677 mmHg 20%
    18:00 +25°C° 0 mm 1 mps 677 mmHg 22%
    19:00 +24°C° 0 mm 1 mps 677 mmHg 25%
    20:00 +22°C° 0 mm 1 mps 677 mmHg 27%
    21:00 +22°C° 0 mm 1 mps 677 mmHg 28%
    22:00 +22°C° 0 mm 1 mps 677 mmHg 28%
    23:00 +21°C° 0 mm 1 mps 677 mmHg 29%
    Show more